Location: ???????
(55.9142°N, 37.8256°E)
Time: 11:26:56
(UTC+00:00)

Lacrosse 4 Rocket - Pass Details

Date: 14 April 2024
Orbit: 530 x 592 km, 68.0° (Epoch: 18 May)

Event Time Altitude Azimuth Distance (km) Brightness Sun altitude
Exits shadow 00:11:36 13° 282° (WNW) 1,596 3.4 -16.4°
Maximum altitude 00:14:17 24° 332° (NNW) 1,127 3.1 -16.2°
Drops below altitude 10° 00:17:36 10° 29° (NNE) 1,793 5.2 -15.8°
Sets 00:20:06 0° 43° (NE) 2,685 6.7 -15.6°
